Regional Weather Roundup
Issued by NWS

Home | Current Version | Previous Version | Graphics & Text | Print | Product List | Glossary On
Versions: 1 2 3 4 5 6 7 8 9 10 11 12 13 14 15 16 17 18 19 20 21 22 23 24 25 26 27 28 29 30 31 32 33 34 35 36 37 38 39 40 41 42 43 44 45 46 47 48 49 50
399
ASUS43 KIND 250309
RWRIN

WEATHER ROUNDUP FOR INDIANA
NATIONAL WEATHER SERVICE INDIANAPOLIS IN
1000 PM EST SAT FEB 24 2018

NOTE: "FAIR" INDICATES FEW OR NO CLOUDS BELOW 12,000 FEET WITH NO
SIGNIFICANT WEATHER AND/OR OBSTRUCTIONS TO VISIBILITY.

* - STATION DOES NOT REPORT WEATHER SUCH AS PRECIPITATION OR FOG.

+ - STATION NOT QUALITY CONTROLLED BY THE NATIONAL WEATHER SERVICE.
    USE DATA WITH CAUTION...ESPECIALLY DEWPOINT AND RELATIVE
    HUMIDITY OBSERVATIONS.

INZ001>003-010>013-019-020-250400-
NORTHWEST INDIANA

CITY           SKY/WX    TMP DP  RH WIND       PRES   REMARKS
GARY /AIRPORT/ CLOUDY    46  43  87 SE18G36   29.61F
LA PORTE +     CLOUDY    42  41  95 SE18G25   29.64F
MICHIGAN CITY+ CLOUDY    41  41 100 SE13G23   29.62F
MONTICELLO +   CLOUDY    48  47  96 SE8       29.61F
RENSSELAER +   CLOUDY    46  43  87 E17G25    29.60F
VALPARAISO     CLOUDY    46  43  89 SE17G26   29.62F

$$

LMZ046-743>745-250400-
SOUTHERN LAKE MICHIGAN

STATION/POSITION TIME  TEMP    WIND        PRES    WAVE
                       AIR SEA DIR/SP/G            HT
                 (UTC) (F)     (DEG/KT/KT) (MB)    (FT)
BURNS HARBOR     0240   45     130/ 16/ 25 1003.4F
MICHIGAN CITY    0240   42     110/ 23/ 28   N/A

$$

INZ004-005-014>016-021>024-250400-
NORTH CENTRAL INDIANA

CITY           SKY/WX    TMP DP  RH WIND       PRES   REMARKS
GOSHEN         LGT RAIN  39  37  92 E20G25    29.70F WCI  29
LOGANSPORT +   CLOUDY    46  45  93 SE22G28   29.64F
PERU/GRISSOM   CLOUDY    48  48 100 E18G30    29.62F
ROCHESTER +    CLOUDY    45  45 100 SE15G26   29.67F
SOUTH BEND     CLOUDY    39  37  92 SE25G36   29.67F WCI  28
WARSAW +       LGT RAIN  39  39 100 N17       29.70F WCI  30

$$

INZ006>009-017-018-025>027-250400-
NORTHEAST INDIANA

CITY           SKY/WX    TMP DP  RH WIND       PRES   REMARKS
AUBURN +       LGT RAIN  36  36 100 E12G17    29.80F WCI  27
FORT WAYNE     LGT RAIN  41  40  96 E15       29.79F FOG
HUNTINGTON +   LGT RAIN  41  40  96 E22       29.70F
KENDALLVILLE + LGT RAIN  36  36 100 E16G24    29.74F WCI  26

$$

INZ028-029-035-036-043>045-051>053-250400-
WEST CENTRAL INDIANA

CITY           SKY/WX    TMP DP  RH WIND       PRES   REMARKS
CRAWFORDSVL +  CLOUDY    49  49 100 SE17G25     N/A
GREENCASTLE +  LGT RAIN  50  50 100 SE18      29.67F
LAFAYETTE      CLOUDY    50  50 100 E13       29.59F
TERRE HAUTE    LGT RAIN  54  54 100 SE18G29   29.58F

$$

INZ030>032-037>040-046>048-054>057-064-065-250400-
CENTRAL INDIANA

CITY           SKY/WX    TMP DP  RH WIND       PRES   REMARKS
COLUMBUS       LGT RAIN  52 N/A N/A CALM      29.80R FOG
FISHERS *+     CLOUDY    50  50 100 SE10G33   29.67
FRANKFORT +    CLOUDY    52  51  95 SE23G29   29.65F
GREENWOOD *+   CLOUDY    50 -41   2 SE9       29.74F
INDIANAPOLIS   LGT RAIN  51  51 100 SE18G33   29.67F
-EAGLE CREEK   LGT RAIN  52  50  93 MISG      29.66F
KOKOMO +       LGT RAIN  48  47  96 SE21      29.64F
MARION +       LGT RAIN  47  47 100 SE25      29.69F
MT COMFORT *+  CLOUDY    50  50 100 SE17      29.71F
SHELBYVILLE    HVY RAIN  52  50  93 SE13      29.73F FOG
ZIONSVILLE +   CLOUDY    49  49 100 SE13      29.69F

$$

INZ033-034-041-042-049-050-058-059-250400-
EAST CENTRAL INDIANA

CITY           SKY/WX    TMP DP  RH WIND       PRES   REMARKS
MUNCIE         RAIN      51  49  92 SE10      29.75F FOG
RICHMOND +     RAIN      46  46 100 E12       29.77F

$$

INZ060-061-067>069-081>083-085>088-250400-
SOUTHWEST INDIANA

CITY           SKY/WX    TMP DP  RH WIND       PRES   REMARKS
EVANSVILLE     RAIN      59  59 100 S10       29.66F FOG
HUNTINGBURG +  RAIN      59  58  96 SW13      29.73R
WASHINGTON +   RAIN      55  54  94 SE15      29.70F

$$

INZ062-063-066-070>080-084-089>092-250400-
SOUTH CENTRAL AND SOUTHEAST INDIANA

CITY           SKY/WX    TMP DP  RH WIND       PRES   REMARKS
BATESVILLE +   FOG       52  52 100 MISG      29.78S VSB 1
BEDFORD +      FAIR      52  50  93 CALM      29.74F
BLOOMINGTON    RAIN      53  52  96 SE12      29.71F FOG
FRENCH LICK *+ CLOUDY    54 N/A N/A CALM      29.74F
MADISON *+     CLOUDY    54  52  94 N3G29     29.76S
NORTH VERNON + RAIN      50  50 100 S5        29.79R
SEYMOUR +      RAIN      54  54 100 NE6       29.72F

$$





USA.gov is the U.S. government's official web portal to all federal, state and local government web resources and services.